Regional Weather Roundup
Issued by NWS

Home | Current Version | Previous Version | Text Only | Print | Product List | Glossary Off
Versions: 1 2 3 4 5 6 7 8 9 10 11 12 13 14 15 16 17 18 19 20 21 22 23 24 25 26 27 28 29 30 31 32 33 34 35 36 37 38 39 40 41 42 43 44 45 46 47 48 49 50

000
ASUS43 KBIS 262002
RWRND

NORTH DAKOTA REGIONAL WEATHER ROUNDUP
NATIONAL WEATHER SERVICE BISMARCK ND
300 PM CDT SUN MAR 26 2017

NOTE: "FAIR" INDICATES FEW OR NO CLOUDS BELOW 12,000 FEET WITH NO
SIGNIFICANT WEATHER AND/OR OBSTRUCTIONS TO VISIBILITY.


NDZ001>003-009>011-017-262100-
NORTHWEST NORTH DAKOTA

CITY           SKY/WX    TMP DP  RH WIND       PRES   REMARKS
WILLISTON      PTSUNNY   61  34  36 W12G17    29.86F
MINOT          FAIR      59  42  53 NE10      29.88F
MINOT AFB      SUNNY     53  41  65 E8        29.87F
$$

NDZ018>021-031>035-040>046-262100-
SOUTHWEST NORTH DAKOTA

CITY           SKY/WX    TMP DP  RH WIND       PRES   REMARKS
BISMARCK       FAIR      60  36  40 VRB6      29.91F
DICKINSON      FAIR      59  25  27 CALM      29.87F
GARRISON         N/A     60  36  40 W8        29.89S
HETTINGER ARPT CLOUDY    56  32  40 N7        29.91F
$$

NDZ004>008-012>016-024-026-027-054-262100-
NORTHEAST NORTH DAKOTA

CITY           SKY/WX    TMP DP  RH WIND       PRES   REMARKS
GRAND FORKS    PTSUNNY   46  40  79 S5        29.94S
GRND FRKS AFB  CLOUDY    48  41  74 CALM      29.94F
DEVILS LAKE    FAIR      51  38  60 CALM      29.92F
$$

NDZ022-023-025-028>030-036>039-047>053-262100-
SOUTHEAST NORTH DAKOTA

CITY           SKY/WX    TMP DP  RH WIND       PRES   REMARKS
FARGO          CLOUDY    44  38  79 W5        29.96S
JAMESTOWN      CLOUDY    49  39  68 NE6       29.92S
$$





USA.gov is the U.S. government's official web portal to all federal, state and local government web resources and services.